Language: 


Des rapports , des résumés tant et plus, au choix de chacun....


Données statistiques de la station
Quotidien Rapport Novembre 27, 2017 Unités:  Métrique    Anglais   les deux
« Précédent Jour
Suivant Jour »
Quotidien Hebdomadaire Mensuel Annuel Actuel
  Haut: Bas: Moyen:
Température: 9.6 °C 0.5 °C 7.1 °C
Pt de rosée: 10.0 °C 1.0 °C 7.3 °C
Humidité: 98 % 97 % 98 %
Vitesse du vent: 31.4 km/h 0.0 km/h 11.6 km/h
Rafales: 37.8 km/h - -
Vent:- - WSW
Pression: 1023.9 hPa 0.0 hPa -
Précipitation: 32.8 mm    
Historical Graphs
 
 
Données statistiques pour Novembre 27, 2017
Heure Température Point de rosée Pression Vent Vitesse du vent Refales Humidité Pluie (taux horaire)
00:02 0.6 °C 1.0 °C 1023.9 hPa Calm   5.8 km/h 97 % 0.0 mm
00:07 0.6 °C 1.0 °C 1023.9 hPa Calm     97 % 0.0 mm
00:12 0.5 °C 1.0 °C 1022.9 hPa Calm     97 % 0.0 mm
00:17 0.6 °C 1.0 °C 1022.9 hPa Calm     98 % 0.0 mm
00:23 0.7 °C 1.0 °C 1022.9 hPa Calm   1.4 km/h 98 % 0.0 mm
00:27 0.8 °C 1.0 °C 1022.9 hPa West 4.0 km/h 4.7 km/h 98 % 0.0 mm
00:32 0.8 °C 1.0 °C 1022.9 hPa Calm   5.0 km/h 98 % 0.0 mm
00:37 0.8 °C 1.0 °C 1022.9 hPa Calm   5.0 km/h 98 % 0.0 mm
00:43 0.7 °C 1.0 °C 1022.9 hPa Calm     98 % 0.0 mm
00:53 0.5 °C 1.0 °C 1022.9 hPa Calm     97 % 0.0 mm
00:58 0.6 °C 1.0 °C 1022.9 hPa Calm     97 % 0.0 mm
01:03 0.6 °C 1.0 °C 1022.9 hPa Calm     98 % 0.0 mm
01:08 0.8 °C 1.0 °C 1022.9 hPa Calm     98 % 0.0 mm
01:13 1.0 °C 1.0 °C 1022.9 hPa Calm     98 % 0.0 mm
01:18 1.1 °C 1.0 °C 1022.9 hPa Calm   2.6 km/h 98 % 0.0 mm
01:23 1.3 °C 1.0 °C 1022.9 hPa Calm   4.7 km/h 98 % 0.0 mm
01:28 1.5 °C 2.0 °C 1022.9 hPa WSW 6.1 km/h 6.4 km/h 98 % 0.0 mm
01:33 1.8 °C 2.0 °C 1022.9 hPa Calm   6.4 km/h 98 % 0.0 mm
01:38 1.9 °C 2.0 °C 1022.9 hPa Calm   5.5 km/h 98 % 0.0 mm
01:43 2.0 °C 2.0 °C 1022.9 hPa Calm   7.9 km/h 98 % 0.0 mm
01:48 2.1 °C 2.0 °C 1022.9 hPa SSW 7.9 km/h 7.9 km/h 98 % 0.0 mm
01:53 2.3 °C 3.0 °C 1022.9 hPa SW 3.2 km/h 7.9 km/h 98 % 0.0 mm
01:58 2.4 °C 3.0 °C 1022.9 hPa SSW 6.9 km/h 9.0 km/h 98 % 0.0 mm
02:03 2.5 °C 3.0 °C 1022.9 hPa Calm   9.0 km/h 98 % 0.0 mm
02:08 2.7 °C 3.0 °C 1022.9 hPa SW 7.9 km/h 9.7 km/h 98 % 0.0 mm
02:13 2.8 °C 3.0 °C 1022.9 hPa SW 8.7 km/h 9.7 km/h 98 % 0.0 mm
02:18 3.0 °C 3.0 °C 1022.9 hPa SSW 5.8 km/h 11.9 km/h 98 % 0.0 mm
02:24 3.1 °C 3.0 °C 1022.9 hPa SW 7.6 km/h 13.7 km/h 98 % 0.0 mm
02:29 3.3 °C 3.0 °C 1021.9 hPa WSW 8.7 km/h 13.7 km/h 98 % 0.0 mm
02:34 3.4 °C 3.0 °C 1021.9 hPa SW 7.9 km/h 12.2 km/h 98 % 0.0 mm
02:39 3.6 °C 4.0 °C 1021.9 hPa SW 4.3 km/h 12.2 km/h 98 % 0.0 mm
02:44 3.6 °C 4.0 °C 1021.9 hPa SSW 9.3 km/h 12.6 km/h 98 % 0.0 mm
02:49 3.7 °C 4.0 °C 1021.9 hPa SSW 9.7 km/h 13.0 km/h 98 % 0.0 mm
02:51 3.7 °C 4.0 °C 1021.9 hPa WSW 7.9 km/h 13.0 km/h 98 % 0.0 mm
02:56 3.8 °C 4.0 °C 1021.9 hPa SW 8.7 km/h 13.0 km/h 98 % 0.0 mm
03:02 3.9 °C 4.0 °C 0.0 hPa SW 10.8 km/h 12.6 km/h 98 % 0.0 mm
03:07 4.1 °C 4.0 °C 1021.9 hPa SW 11.6 km/h 12.6 km/h 98 % 0.0 mm
03:12 4.1 °C 4.0 °C 1020.9 hPa WSW 6.9 km/h 13.0 km/h 98 % 0.0 mm
03:17 4.1 °C 4.0 °C 1020.9 hPa WSW 6.9 km/h 13.0 km/h 98 % 0.0 mm
03:22 4.1 °C 4.0 °C 1020.9 hPa WSW 9.0 km/h 11.9 km/h 98 % 0.0 mm
03:27 4.2 °C 4.0 °C 1020.9 hPa SW 7.9 km/h 11.9 km/h 98 % 0.0 mm
03:32 4.2 °C 4.0 °C 1020.9 hPa SW 9.3 km/h 12.2 km/h 98 % 0.0 mm
03:37 4.3 °C 4.0 °C 1020.9 hPa Calm   12.2 km/h 98 % 0.0 mm
03:42 4.3 °C 4.0 °C 1020.9 hPa SW 10.5 km/h 12.6 km/h 98 % 0.0 mm
03:47 4.4 °C 4.0 °C 1020.9 hPa SSW 6.9 km/h 12.6 km/h 98 % 0.0 mm
03:52 4.5 °C 5.0 °C 1020.9 hPa SSW 10.5 km/h 14.0 km/h 98 % 0.0 mm
03:57 4.6 °C 5.0 °C 1020.9 hPa SW 9.0 km/h 14.0 km/h 98 % 0.0 mm
04:02 4.6 °C 5.0 °C 1020.9 hPa South 9.0 km/h 13.7 km/h 98 % 0.0 mm
04:07 4.7 °C 5.0 °C 1020.9 hPa SW 9.0 km/h 13.7 km/h 98 % 0.0 mm
04:12 4.8 °C 5.0 °C 1020.9 hPa SW 6.9 km/h 13.7 km/h 98 % 0.0 mm
04:17 4.8 °C 5.0 °C 1020.9 hPa SSW 12.6 km/h 12.6 km/h 98 % 0.0 mm
04:22 4.9 °C 5.0 °C 1020.9 hPa SSW 6.4 km/h 12.6 km/h 98 % 0.0 mm
04:25 5.0 °C 5.0 °C 1020.9 hPa SSW 10.1 km/h 14.3 km/h 98 % 0.0 mm
04:30 5.1 °C 5.0 °C 1019.9 hPa SSW 10.5 km/h 14.3 km/h 98 % 0.0 mm
04:35 5.2 °C 5.0 °C 1019.9 hPa SW 9.7 km/h 15.8 km/h 98 % 0.0 mm
04:40 5.3 °C 6.0 °C 1019.9 hPa SW 10.5 km/h 15.8 km/h 98 % 0.0 mm
04:45 5.3 °C 6.0 °C 1019.9 hPa SSW 10.5 km/h 14.0 km/h 98 % 0.0 mm
04:50 5.4 °C 6.0 °C 1019.9 hPa SSW 11.9 km/h 15.1 km/h 98 % 0.0 mm
04:55 5.4 °C 6.0 °C 1019.9 hPa SSW 9.7 km/h 15.1 km/h 98 % 0.0 mm
05:00 5.5 °C 6.0 °C 1018.8 hPa WSW 11.9 km/h 14.0 km/h 98 % 0.0 mm
05:05 5.5 °C 6.0 °C 1018.8 hPa SW 12.2 km/h 14.0 km/h 98 % 0.0 mm
05:10 5.6 °C 6.0 °C 1018.8 hPa SSW 11.9 km/h 13.0 km/h 98 % 0.0 mm
05:20 5.7 °C 6.0 °C 1018.2 hPa SSW 9.0 km/h 16.3 km/h 98 % 0.0 mm
05:25 5.8 °C 6.0 °C 1018.2 hPa SSW 13.0 km/h 16.3 km/h 98 % 0.0 mm
05:30 5.9 °C 6.0 °C 1018.2 hPa SSW 11.9 km/h 16.3 km/h 98 % 0.0 mm
05:35 6.0 °C 6.0 °C 1018.2 hPa SW 9.7 km/h 14.0 km/h 98 % 0.0 mm
05:40 6.1 °C 6.0 °C 1018.2 hPa SSW 9.0 km/h 14.0 km/h 98 % 0.0 mm
05:42 6.1 °C 6.0 °C 1018.8 hPa SSW 9.0 km/h 17.7 km/h 98 % 0.0 mm
05:47 6.2 °C 6.0 °C 1018.8 hPa SSW 22.7 km/h 22.7 km/h 98 % 0.0 mm
05:53 6.3 °C 6.0 °C 1018.8 hPa SW 17.7 km/h 22.7 km/h 98 % 0.0 mm
05:58 6.4 °C 6.0 °C 1018.8 hPa SSW 10.1 km/h 19.8 km/h 98 % 0.0 mm
06:03 6.4 °C 6.0 °C 1018.8 hPa SW 14.0 km/h 19.8 km/h 98 % 0.0 mm
06:08 6.5 °C 7.0 °C 1018.8 hPa SW 13.0 km/h 16.9 km/h 98 % 0.0 mm
06:13 6.5 °C 7.0 °C 1018.2 hPa SW 14.0 km/h 18.0 km/h 98 % 0.0 mm
06:18 6.6 °C 7.0 °C 1018.2 hPa SSW 13.7 km/h 18.0 km/h 98 % 0.3 mm
06:23 6.7 °C 7.0 °C 1018.2 hPa WSW 13.0 km/h 16.6 km/h 98 % 0.3 mm
06:28 6.7 °C 7.0 °C 1018.2 hPa SW 11.6 km/h 16.3 km/h 98 % 0.3 mm
06:33 6.7 °C 7.0 °C 1018.2 hPa WSW 10.1 km/h 16.6 km/h 98 % 0.3 mm
06:38 6.8 °C 7.0 °C 1018.2 hPa SSW 14.0 km/h 16.6 km/h 98 % 0.3 mm
06:43 6.9 °C 7.0 °C 1018.2 hPa SW 19.1 km/h 20.9 km/h 98 % 0.3 mm
06:48 6.9 °C 7.0 °C 1018.2 hPa SW 10.8 km/h 20.9 km/h 98 % 0.5 mm
06:53 7.0 °C 7.0 °C 1018.2 hPa SW 10.1 km/h 17.7 km/h 98 % 0.5 mm
06:58 7.1 °C 7.0 °C 1018.2 hPa SW 12.6 km/h 17.7 km/h 98 % 0.8 mm
06:59 7.1 °C 7.0 °C 1018.2 hPa WSW 13.7 km/h 17.7 km/h 98 % 0.8 mm
07:04 7.1 °C 7.0 °C 1018.2 hPa SSW 12.2 km/h 16.6 km/h 98 % 1.3 mm
07:09 7.2 °C 7.0 °C 1018.2 hPa SW 13.7 km/h 23.3 km/h 98 % 1.3 mm
07:14 7.2 °C 7.0 °C 1016.8 hPa SW 18.0 km/h 23.3 km/h 98 % 1.3 mm
07:19 7.3 °C 7.0 °C 1016.8 hPa SW 13.7 km/h 19.8 km/h 98 % 1.3 mm
07:24 7.3 °C 7.0 °C 1016.8 hPa SW 10.1 km/h 19.8 km/h 98 % 1.5 mm
07:29 7.4 °C 7.0 °C 1016.8 hPa SSW 20.1 km/h 23.3 km/h 98 % 1.5 mm
07:34 7.4 °C 7.0 °C 1016.8 hPa WSW 17.7 km/h 23.3 km/h 98 % 1.8 mm
07:40 7.4 °C 7.0 °C 1016.8 hPa SW 19.5 km/h 23.0 km/h 98 % 1.8 mm
07:45 7.4 °C 7.0 °C 1016.8 hPa SW 15.4 km/h 23.0 km/h 98 % 1.8 mm
07:50 7.5 °C 8.0 °C 1016.8 hPa SSW 16.3 km/h 23.0 km/h 98 % 1.8 mm
07:55 7.5 °C 8.0 °C 1016.8 hPa SSW 19.8 km/h 23.3 km/h 98 % 1.8 mm
08:00 7.5 °C 8.0 °C 1016.8 hPa SW 14.0 km/h 23.3 km/h 98 % 1.8 mm
08:05 7.5 °C 8.0 °C 1016.8 hPa WSW 13.7 km/h 23.0 km/h 98 % 1.8 mm
08:10 7.5 °C 8.0 °C 1016.8 hPa SSW 10.1 km/h 23.0 km/h 98 % 2.3 mm
08:15 7.5 °C 8.0 °C 1016.8 hPa SSW 12.6 km/h 20.6 km/h 98 % 1.8 mm
08:20 7.5 °C 8.0 °C 1016.8 hPa SW 15.8 km/h 20.6 km/h 98 % 2.3 mm
08:35 7.6 °C 8.0 °C 1016.8 hPa SW 13.7 km/h 21.2 km/h 98 % 2.5 mm
08:40 7.6 °C 8.0 °C 1016.8 hPa West 20.9 km/h 24.8 km/h 98 % 2.5 mm
08:45 7.7 °C 8.0 °C 1016.8 hPa SSW 16.9 km/h 27.7 km/h 98 % 3.0 mm
08:50 7.7 °C 8.0 °C 1016.8 hPa WSW 20.9 km/h 27.7 km/h 98 % 3.0 mm
08:56 7.8 °C 8.0 °C 1016.1 hPa SW 16.3 km/h 27.7 km/h 98 % 3.0 mm
09:01 7.8 °C 8.0 °C 1016.1 hPa WSW 13.7 km/h 27.4 km/h 98 % 3.0 mm
09:06 7.8 °C 8.0 °C 1016.1 hPa SSW 12.6 km/h 24.5 km/h 98 % 3.0 mm
09:11 7.8 °C 8.0 °C 1016.1 hPa WSW 13.0 km/h 23.8 km/h 98 % 3.0 mm
09:16 7.8 °C 8.0 °C 1016.1 hPa SSW 17.7 km/h 23.8 km/h 98 % 3.0 mm
09:21 7.8 °C 8.0 °C 1016.1 hPa SSW 10.5 km/h 23.8 km/h 98 % 3.3 mm
09:26 7.8 °C 8.0 °C 1015.1 hPa SW 16.6 km/h 23.3 km/h 98 % 3.3 mm
09:31 7.8 °C 8.0 °C 1015.1 hPa SW 24.5 km/h 24.5 km/h 98 % 3.0 mm
09:36 7.9 °C 8.0 °C 1015.1 hPa WSW 15.4 km/h 24.5 km/h 98 % 3.0 mm
09:41 7.9 °C 8.0 °C 1014.1 hPa SSW 16.9 km/h 22.4 km/h 98 % 2.8 mm
09:46 7.9 °C 8.0 °C 1014.1 hPa SW 16.3 km/h 27.4 km/h 98 % 2.8 mm
09:52 8.0 °C 8.0 °C 1014.1 hPa SW 16.9 km/h 27.4 km/h 98 % 2.8 mm
09:57 8.0 °C 8.0 °C 1015.1 hPa SW 16.6 km/h 22.4 km/h 98 % 2.5 mm
10:02 8.0 °C 8.0 °C 1015.1 hPa SW 17.2 km/h 27.4 km/h 98 % 2.5 mm
10:07 8.0 °C 8.0 °C 1015.1 hPa WSW 17.2 km/h 27.4 km/h 98 % 2.5 mm
10:12 8.1 °C 8.0 °C 1015.1 hPa WSW 20.1 km/h 28.5 km/h 98 % 2.3 mm
10:17 8.1 °C 8.0 °C 1015.1 hPa WSW 17.7 km/h 28.5 km/h 98 % 2.3 mm
10:22 8.1 °C 8.0 °C 1015.1 hPa SW 16.6 km/h 26.2 km/h 98 % 2.5 mm
10:27 8.1 °C 8.0 °C 1015.1 hPa SW 19.8 km/h 29.9 km/h 98 % 2.3 mm
10:32 8.2 °C 8.0 °C 1015.1 hPa WSW 13.0 km/h 30.6 km/h 98 % 2.5 mm
10:37 8.2 °C 8.0 °C 1015.1 hPa SW 20.1 km/h 30.6 km/h 98 % 2.5 mm
10:42 8.2 °C 8.0 °C 1014.1 hPa SW 19.1 km/h 31.4 km/h 98 % 2.5 mm
10:47 8.3 °C 9.0 °C 1014.1 hPa SW 16.6 km/h 31.4 km/h 98 % 2.8 mm
10:52 8.3 °C 9.0 °C 1014.1 hPa WSW 23.8 km/h 29.1 km/h 98 % 2.5 mm
10:57 8.4 °C 9.0 °C 1014.1 hPa SW 14.0 km/h 25.9 km/h 98 % 2.8 mm
11:02 8.4 °C 9.0 °C 1014.1 hPa SW 15.8 km/h 28.5 km/h 98 % 2.8 mm
11:07 8.4 °C 9.0 °C 1014.1 hPa SSW 19.5 km/h 30.9 km/h 98 % 2.8 mm
11:12 8.4 °C 9.0 °C 1014.1 hPa SW 19.5 km/h 30.9 km/h 98 % 2.8 mm
11:17 8.4 °C 9.0 °C 1014.1 hPa SW 15.8 km/h 31.4 km/h 98 % 2.8 mm
11:22 8.5 °C 9.0 °C 1014.1 hPa WSW 20.1 km/h 31.4 km/h 98 % 2.8 mm
11:27 8.5 °C 9.0 °C 1014.1 hPa WSW 19.5 km/h 24.8 km/h 98 % 3.3 mm
11:32 8.5 °C 9.0 °C 1014.1 hPa SW 24.8 km/h 30.6 km/h 98 % 3.3 mm
11:37 8.6 °C 9.0 °C 1014.1 hPa SW 21.2 km/h 30.6 km/h 98 % 3.3 mm
11:42 8.6 °C 9.0 °C 1013.1 hPa SW 16.3 km/h 28.5 km/h 98 % 3.3 mm
11:47 8.6 °C 9.0 °C 1013.1 hPa SW 20.1 km/h 28.5 km/h 98 % 3.0 mm
11:52 8.6 °C 9.0 °C 1013.1 hPa SSW 27.4 km/h 31.7 km/h 98 % 3.3 mm
11:57 8.6 °C 9.0 °C 1013.1 hPa WSW 31.4 km/h 31.7 km/h 98 % 3.6 mm
12:02 8.7 °C 9.0 °C 1013.1 hPa WSW 21.2 km/h 31.7 km/h 98 % 3.8 mm
12:07 8.7 °C 9.0 °C 1013.1 hPa WSW 25.6 km/h 31.7 km/h 98 % 3.8 mm
12:12 8.7 °C 9.0 °C 1013.1 hPa WSW 20.9 km/h 30.2 km/h 98 % 4.1 mm
12:17 8.7 °C 9.0 °C 1013.1 hPa SW 23.3 km/h 31.4 km/h 98 % 4.3 mm
12:22 8.8 °C 9.0 °C 1013.1 hPa WSW 19.8 km/h 36.0 km/h 98 % 4.3 mm
12:28 8.8 °C 9.0 °C 1013.1 hPa WSW 22.7 km/h 36.0 km/h 98 % 4.3 mm
12:33 8.8 °C 9.0 °C 1013.1 hPa SW 19.1 km/h 35.2 km/h 98 % 4.6 mm
12:38 8.8 °C 9.0 °C 1013.1 hPa WSW 16.9 km/h 27.7 km/h 98 % 5.6 mm
12:43 8.9 °C 9.0 °C 1013.1 hPa WSW 17.2 km/h 25.3 km/h 98 % 5.8 mm
12:48 8.9 °C 9.0 °C 1013.1 hPa West 16.3 km/h 32.0 km/h 98 % 6.1 mm
12:53 8.9 °C 9.0 °C 1013.1 hPa SW 19.8 km/h 32.0 km/h 98 % 6.3 mm
12:58 9.0 °C 9.0 °C 1012.1 hPa SW 20.6 km/h 35.6 km/h 98 % 6.9 mm
13:03 9.0 °C 9.0 °C 1012.1 hPa WSW 23.3 km/h 35.6 km/h 98 % 7.1 mm
13:08 9.0 °C 9.0 °C 1012.1 hPa WSW 15.1 km/h 33.8 km/h 98 % 7.4 mm
13:13 9.0 °C 9.0 °C 1013.1 hPa WSW 18.3 km/h 27.7 km/h 98 % 7.9 mm
13:18 9.0 °C 9.0 °C 1013.1 hPa West 12.2 km/h 27.7 km/h 98 % 10.9 mm
13:23 9.0 °C 9.0 °C 1013.1 hPa NW 9.0 km/h 23.3 km/h 98 % 11.2 mm
13:28 9.1 °C 9.0 °C 1012.1 hPa WSW 21.2 km/h 21.2 km/h 98 % 11.7 mm
13:33 9.1 °C 9.0 °C 1012.1 hPa WSW 20.9 km/h 28.5 km/h 98 % 11.7 mm
13:38 9.1 °C 9.0 °C 1012.1 hPa WSW 20.6 km/h 37.8 km/h 98 % 11.4 mm
13:43 9.2 °C 9.0 °C 1012.1 hPa WSW 17.2 km/h 37.8 km/h 98 % 11.2 mm
13:48 9.2 °C 9.0 °C 1012.1 hPa WSW 11.9 km/h 28.5 km/h 98 % 10.7 mm
13:53 9.2 °C 9.0 °C 1012.1 hPa WSW 13.0 km/h 22.4 km/h 98 % 10.2 mm
13:58 9.2 °C 9.0 °C 1011.1 hPa WSW 20.1 km/h 20.6 km/h 98 % 9.4 mm
14:03 9.3 °C 9.0 °C 1011.1 hPa SW 15.8 km/h 27.4 km/h 98 % 8.9 mm
14:08 9.3 °C 9.0 °C 1011.1 hPa SW 23.8 km/h 27.4 km/h 98 % 8.4 mm
14:13 9.3 °C 9.0 °C 1011.1 hPa WSW 21.2 km/h 24.8 km/h 98 % 7.4 mm
14:18 9.4 °C 9.0 °C 1011.1 hPa SSW 15.8 km/h 23.8 km/h 98 % 4.6 mm
14:23 9.4 °C 9.0 °C 1011.1 hPa SW 15.1 km/h 19.5 km/h 98 % 3.8 mm
14:28 9.4 °C 9.0 °C 1011.1 hPa SSW 15.4 km/h 23.0 km/h 98 % 2.5 mm
14:33 9.5 °C 10.0 °C 1011.1 hPa WSW 15.8 km/h 23.0 km/h 98 % 1.8 mm
14:38 9.5 °C 10.0 °C 1011.1 hPa SW 20.9 km/h 24.8 km/h 98 % 1.3 mm
14:43 9.5 °C 10.0 °C 1011.1 hPa SW 15.4 km/h 24.8 km/h 98 % 1.3 mm
14:44 9.5 °C 10.0 °C 1011.1 hPa SW 11.9 km/h 24.8 km/h 98 % 1.3 mm
14:50 9.6 °C 10.0 °C 1011.1 hPa WSW 12.6 km/h 17.2 km/h 98 % 1.3 mm
14:55 9.6 °C 10.0 °C 1011.1 hPa WSW 12.6 km/h 17.2 km/h 98 % 0.8 mm
15:00 9.6 °C 10.0 °C 1011.1 hPa WSW 15.8 km/h 16.6 km/h 98 % 1.3 mm
15:05 9.6 °C 10.0 °C 1011.1 hPa WSW 12.2 km/h 16.6 km/h 98 % 1.3 mm
15:10 9.6 °C 10.0 °C 1011.1 hPa WSW 11.1 km/h 16.6 km/h 98 % 0.8 mm
15:15 9.6 °C 10.0 °C 1011.1 hPa WSW 19.1 km/h 19.1 km/h 98 % 0.8 mm
15:20 9.6 °C 10.0 °C 1011.1 hPa West 13.0 km/h 19.1 km/h 98 % 0.5 mm
15:25 9.6 °C 10.0 °C 1011.1 hPa WSW 12.6 km/h 18.3 km/h 98 % 0.5 mm
15:30 9.5 °C 10.0 °C 1011.1 hPa WSW 14.8 km/h 20.6 km/h 98 % 0.5 mm
15:35 9.5 °C 10.0 °C 1011.1 hPa WSW 16.3 km/h 21.2 km/h 98 % 0.5 mm
15:40 9.5 °C 10.0 °C 1011.1 hPa WSW 14.0 km/h 21.2 km/h 98 % 0.5 mm
15:46 9.4 °C 9.0 °C 1011.1 hPa WSW 16.6 km/h 20.6 km/h 98 % 0.3 mm
15:59 9.3 °C 9.0 °C 1010.0 hPa WSW 16.6 km/h 21.2 km/h 98 % 0.0 mm
16:04 9.2 °C 9.0 °C 1010.0 hPa WSW 11.9 km/h 20.1 km/h 98 % 0.0 mm
16:10 9.2 °C 9.0 °C 1010.0 hPa WSW 15.8 km/h 19.8 km/h 98 % 0.0 mm
16:15 9.1 °C 9.0 °C 1010.0 hPa WSW 11.9 km/h 20.1 km/h 98 % 0.0 mm
16:16 9.1 °C 9.0 °C 1010.0 hPa WSW 14.0 km/h 20.1 km/h 98 % 0.0 mm
16:21 9.0 °C 9.0 °C 1010.0 hPa WSW 10.1 km/h 16.9 km/h 98 % 0.0 mm
16:26 9.0 °C 9.0 °C 1010.0 hPa SW 11.9 km/h 16.9 km/h 98 % 0.0 mm
16:31 9.0 °C 9.0 °C 1010.0 hPa WSW 12.2 km/h 19.8 km/h 98 % 0.0 mm
16:36 8.9 °C 9.0 °C 1010.0 hPa WSW 17.7 km/h 19.8 km/h 98 % 0.0 mm
16:41 8.9 °C 9.0 °C 1010.0 hPa WSW 13.0 km/h 17.7 km/h 98 % 0.0 mm
16:46 8.8 °C 9.0 °C 1010.0 hPa WSW 9.7 km/h 19.5 km/h 98 % 0.0 mm
16:51 8.7 °C 9.0 °C 1010.0 hPa WSW 10.5 km/h 19.5 km/h 98 % 0.0 mm
16:56 8.6 °C 9.0 °C 1010.0 hPa WSW 10.1 km/h 14.0 km/h 98 % 0.0 mm
17:01 8.6 °C 9.0 °C 1010.0 hPa WSW 11.6 km/h 14.0 km/h 98 % 0.0 mm
17:06 8.5 °C 9.0 °C 1010.0 hPa WSW 16.3 km/h 16.3 km/h 98 % 0.0 mm
17:11 8.5 °C 9.0 °C 1010.0 hPa WSW 10.1 km/h 16.3 km/h 98 % 0.0 mm
17:16 8.5 °C 9.0 °C 1010.0 hPa WSW 11.6 km/h 16.9 km/h 98 % 0.0 mm
17:21 8.5 °C 9.0 °C 1010.0 hPa WSW 13.0 km/h 17.2 km/h 98 % 0.0 mm
17:26 8.5 °C 9.0 °C 1010.0 hPa WSW 11.9 km/h 19.8 km/h 98 % 0.0 mm
17:31 8.5 °C 9.0 °C 1010.0 hPa SW 11.9 km/h 19.8 km/h 98 % 0.0 mm
17:36 8.5 °C 9.0 °C 1010.0 hPa WSW 13.0 km/h 17.2 km/h 98 % 0.0 mm
17:41 8.5 °C 9.0 °C 1010.0 hPa WSW 10.5 km/h 14.0 km/h 98 % 0.0 mm
17:46 8.5 °C 9.0 °C 1010.0 hPa WSW 14.0 km/h 16.6 km/h 98 % 0.0 mm
17:52 8.6 °C 9.0 °C 1010.0 hPa SW 14.3 km/h 19.8 km/h 98 % 0.0 mm
17:57 8.6 °C 9.0 °C 1010.0 hPa WSW 13.7 km/h 19.8 km/h 98 % 0.0 mm
18:02 8.6 °C 9.0 °C 1010.0 hPa WSW 12.6 km/h 19.5 km/h 98 % 0.0 mm
18:07 8.6 °C 9.0 °C 1010.0 hPa WSW 13.7 km/h 18.0 km/h 98 % 0.0 mm
18:12 8.7 °C 9.0 °C 1010.0 hPa WSW 12.2 km/h 18.0 km/h 98 % 0.0 mm
18:17 8.7 °C 9.0 °C 1010.0 hPa WSW 14.3 km/h 20.1 km/h 98 % 0.0 mm
18:22 8.7 °C 9.0 °C 1010.0 hPa WSW 14.0 km/h 20.6 km/h 98 % 0.0 mm
18:27 8.7 °C 9.0 °C 1009.0 hPa WSW 13.0 km/h 21.2 km/h 98 % 0.0 mm
18:32 8.7 °C 9.0 °C 1009.0 hPa WSW 13.7 km/h 21.2 km/h 98 % 0.0 mm
18:37 8.7 °C 9.0 °C 1009.0 hPa WSW 12.6 km/h 20.9 km/h 98 % 0.0 mm
18:42 8.7 °C 9.0 °C 1009.0 hPa WSW 10.5 km/h 19.5 km/h 98 % 0.0 mm
18:47 8.7 °C 9.0 °C 1009.0 hPa WSW 10.5 km/h 16.9 km/h 98 % 0.0 mm
18:52 8.8 °C 9.0 °C 1009.0 hPa WSW 11.6 km/h 17.7 km/h 98 % 0.0 mm
18:53 8.8 °C 9.0 °C 1009.0 hPa SW 11.9 km/h 17.7 km/h 98 % 0.0 mm
18:58 8.8 °C 9.0 °C 1009.0 hPa SW 9.7 km/h 17.7 km/h 98 % 0.0 mm
19:03 8.8 °C 9.0 °C 1009.0 hPa WSW 12.6 km/h 17.7 km/h 98 % 0.0 mm
19:08 8.8 °C 9.0 °C 1009.0 hPa WSW 11.9 km/h 17.7 km/h 98 % 0.0 mm
19:13 8.8 °C 9.0 °C 1009.0 hPa WSW 13.7 km/h 16.6 km/h 98 % 0.0 mm
19:18 8.8 °C 9.0 °C 1009.0 hPa SW 7.9 km/h 15.4 km/h 98 % 0.0 mm
19:23 8.8 °C 9.0 °C 1009.0 hPa SW 8.7 km/h 12.6 km/h 98 % 0.0 mm
19:28 8.8 °C 9.0 °C 1009.0 hPa WSW 10.1 km/h 14.3 km/h 98 % 0.0 mm
19:33 8.8 °C 9.0 °C 1009.0 hPa West 3.2 km/h 14.3 km/h 98 % 0.0 mm
19:38 8.7 °C 9.0 °C 1009.0 hPa WSW 11.9 km/h 16.9 km/h 98 % 0.0 mm
19:43 8.7 °C 9.0 °C 1009.0 hPa WSW 10.5 km/h 16.9 km/h 98 % 0.0 mm
19:45 8.7 °C 9.0 °C 1009.0 hPa WSW 13.7 km/h 16.9 km/h 98 % 0.0 mm
19:50 8.6 °C 9.0 °C 1009.0 hPa WSW 12.6 km/h 16.3 km/h 98 % 0.0 mm
19:55 8.6 °C 9.0 °C 1009.0 hPa WSW 13.0 km/h 16.3 km/h 98 % 0.0 mm
20:00 8.6 °C 9.0 °C 1009.0 hPa WSW 10.5 km/h 14.0 km/h 98 % 0.0 mm
20:05 8.6 °C 9.0 °C 1009.0 hPa WSW 10.1 km/h 15.4 km/h 98 % 0.0 mm
20:10 8.5 °C 9.0 °C 1009.0 hPa WSW 10.1 km/h 15.4 km/h 98 % 0.0 mm
20:15 8.5 °C 9.0 °C 1009.0 hPa Calm   13.7 km/h 98 % 0.0 mm
20:20 8.5 °C 9.0 °C 1009.0 hPa WSW 9.7 km/h 10.8 km/h 98 % 0.0 mm
20:25 8.4 °C 9.0 °C 1009.0 hPa WSW 9.0 km/h 10.5 km/h 98 % 0.0 mm
20:30 8.4 °C 9.0 °C 1009.0 hPa West 9.3 km/h 11.6 km/h 98 % 0.0 mm
20:35 8.4 °C 9.0 °C 1009.0 hPa WSW 7.9 km/h 11.6 km/h 98 % 0.0 mm
20:40 8.5 °C 9.0 °C 1009.0 hPa West 6.1 km/h 11.6 km/h 98 % 0.0 mm
20:45 8.5 °C 9.0 °C 1008.0 hPa West 10.1 km/h 11.9 km/h 98 % 0.0 mm
20:50 8.5 °C 9.0 °C 1008.0 hPa West 6.4 km/h 11.9 km/h 98 % 0.0 mm
20:55 8.4 °C 9.0 °C 1008.0 hPa Calm   9.3 km/h 98 % 0.0 mm
21:00 8.4 °C 9.0 °C 1008.0 hPa West 7.6 km/h 9.0 km/h 98 % 0.0 mm
21:05 8.3 °C 9.0 °C 1008.0 hPa Calm   7.9 km/h 98 % 0.0 mm
21:10 8.3 °C 9.0 °C 1008.0 hPa West 5.0 km/h 7.9 km/h 98 % 0.0 mm
21:15 8.3 °C 9.0 °C 1008.0 hPa West 5.8 km/h 10.5 km/h 98 % 0.0 mm
21:20 8.3 °C 9.0 °C 1008.0 hPa SSW 8.7 km/h 11.6 km/h 98 % 0.0 mm
21:25 8.3 °C 9.0 °C 1008.0 hPa WSW 5.8 km/h 11.6 km/h 98 % 0.3 mm
21:30 8.2 °C 8.0 °C 1009.0 hPa West 9.7 km/h 16.3 km/h 98 % 0.3 mm
21:35 8.2 °C 8.0 °C 1009.0 hPa West 2.6 km/h 16.3 km/h 98 % 0.3 mm
21:40 8.2 °C 8.0 °C 1009.0 hPa Calm   10.1 km/h 98 % 0.3 mm
21:45 8.1 °C 8.0 °C 1009.0 hPa West 7.6 km/h 9.7 km/h 98 % 0.3 mm
21:50 8.1 °C 8.0 °C 1009.0 hPa West 4.3 km/h 7.6 km/h 98 % 0.3 mm
21:55 8.0 °C 8.0 °C 1009.0 hPa West 5.5 km/h 7.6 km/h 98 % 0.3 mm
22:01 7.9 °C 8.0 °C 1009.0 hPa West 9.0 km/h 9.3 km/h 98 % 0.3 mm
22:06 7.9 °C 8.0 °C 1009.0 hPa West 9.7 km/h 14.0 km/h 98 % 0.3 mm
22:11 7.9 °C 8.0 °C 1009.0 hPa WSW 9.3 km/h 14.0 km/h 98 % 0.3 mm
22:12 7.9 °C 8.0 °C 1009.0 hPa West 9.3 km/h 14.0 km/h 98 % 0.3 mm
22:17 7.8 °C 8.0 °C 1009.0 hPa West 7.2 km/h 13.0 km/h 98 % 0.3 mm
22:22 7.8 °C 8.0 °C 1009.0 hPa Calm   11.6 km/h 98 % 0.3 mm
22:27 7.7 °C 8.0 °C 1009.0 hPa WSW 8.7 km/h 10.1 km/h 98 % 0.0 mm
22:32 7.7 °C 8.0 °C 1009.0 hPa West 8.7 km/h 11.9 km/h 98 % 0.0 mm
22:37 7.7 °C 8.0 °C 1009.0 hPa Calm   11.9 km/h 98 % 0.0 mm
22:39 7.6 °C 8.0 °C 1009.0 hPa Calm   10.1 km/h 98 % 0.0 mm
22:44 7.6 °C 8.0 °C 1008.0 hPa Calm   9.0 km/h 98 % 0.0 mm
22:49 7.5 °C 8.0 °C 1008.0 hPa WSW 5.5 km/h 9.0 km/h 98 % 0.0 mm
22:54 7.5 °C 8.0 °C 1008.0 hPa West 4.0 km/h 6.9 km/h 98 % 0.0 mm
22:59 7.4 °C 7.0 °C 1008.0 hPa WSW 5.8 km/h 8.7 km/h 98 % 0.0 mm
23:04 7.3 °C 7.0 °C 1008.0 hPa WSW 7.9 km/h 9.0 km/h 98 % 0.0 mm
23:09 7.3 °C 7.0 °C 1008.0 hPa WSW 5.5 km/h 9.0 km/h 98 % 0.0 mm
23:15 7.2 °C 7.0 °C 1008.0 hPa Calm   9.7 km/h 98 % 0.0 mm
23:19 7.1 °C 7.0 °C 1008.0 hPa WSW 7.9 km/h 10.1 km/h 98 % 0.0 mm
23:25 7.1 °C 7.0 °C 1008.0 hPa WSW 9.7 km/h 10.5 km/h 98 % 0.0 mm
23:30 7.1 °C 7.0 °C 1008.0 hPa Calm   10.5 km/h 98 % 0.3 mm
23:35 7.1 °C 7.0 °C 1008.0 hPa WSW 4.0 km/h 10.5 km/h 98 % 0.3 mm
23:39 7.1 °C 7.0 °C 1008.0 hPa WSW 9.7 km/h 10.5 km/h 98 % 0.3 mm
23:42 7.0 °C 7.0 °C 1008.0 hPa West 10.1 km/h 10.5 km/h 98 % 0.3 mm
23:47 7.0 °C 7.0 °C 1008.0 hPa WSW 6.4 km/h 10.5 km/h 98 % 0.3 mm
23:52 7.0 °C 7.0 °C 1008.0 hPa West 9.7 km/h 11.6 km/h 98 % 0.3 mm
23:57 7.0 °C 7.0 °C 1007.0 hPa West 9.0 km/h 12.2 km/h 98 % 0.3 mm
Le Gheer Warneton
Courtoisie de Weather Underground - 2.25 mb

Mise a jour : 17-12-17 07:11:12
Généré par Cumulus 1.9.4 (1099)